Benson, MN

11:23 AM CST on February 12, 2016 (GMT -0600)
Benson Municipal

Weather History for KBBB - July, 2013

Change the Weather History Date:

Wednesday, July 3, 2013

  Actual Average (WUND) Record (WUND)
Temperature  
Mean Temperature 73 °F -  
Max Temperature 84 °F - - (-1)
Min Temperature 62 °F - - (-1)
Cooling Degree Days 8    
Growing Degree Days 23 (Base 50)    
Moisture  
Dew Point 54 °F    
Average Humidity 54    
Maximum Humidity 82    
Minimum Humidity 30    
Precipitation  
Precipitation 0.00 in - - ()
Sea Level Pressure  
Sea Level Pressure 30.01 in    
Wind  
Wind Speed 4 mph (South)    
Max Wind Speed 13 mph    
Max Gust Speed 17 mph    
Visibility 10 miles    
Events      
Averages and records for this station are not official NWS values.
T = Trace of Precipitation, MM = Missing Value Source: NWS Daily Summary

Daily Weather History Graph

Daily Weather History Graph

Search for Another Location

Airport or City:

Trip Planner

Search our weather history database for the weather conditions in past years. The results will help you decide how hot, cold, wet, or windy it might be!

Date:

Astronomy

Jul. 03, 2013 Rise Set
Actual Time 5:39 AM CDT 9:13 PM CDT
Civil Twilight 5:02 AM CDT 9:51 PM CDT
Nautical Twilight 4:12 AM CDT 10:40 PM CDT
Astronomical Twilight 3:07 AM CDT 11:45 PM CDT
Moon 2:24 AM CDT (7/3) 5:20 PM CDT (7/3)
Length of Visible Light 16h 48m
Length of Day
15h 33m
Waning Crescent, 18% of the Moon is Illuminated
Jul 3
Waning Crescent
Jul 8
New
Jul 15
First Quarter
Jul 22
Full
Jul 29
Last Quarter

Hourly Weather History & Observations

Time (CDT) Temp. Heat Index Dew Point Humidity Pressure Visibility Wind Dir Wind Speed Gust Speed Precip Events Conditions
12:12 AM 62.6 °F - 57.2 °F 82% 30.07 in 10.0 mi Calm Calm - N/A   Clear
12:32 AM 64.4 °F - 57.2 °F 77% 30.07 in 10.0 mi Calm Calm - N/A   Clear
12:53 AM 64.4 °F - 57.2 °F 77% 30.07 in 10.0 mi Calm Calm - N/A   Clear
1:12 AM 64.4 °F - 57.2 °F 77% 30.07 in 10.0 mi SSE 3.5 mph - N/A   Clear
1:32 AM 66.2 °F - 57.2 °F 73% 30.07 in 10.0 mi SSE 4.6 mph - N/A   Clear
1:53 AM 66.2 °F - 57.2 °F 73% 30.06 in 10.0 mi SSE 5.8 mph - N/A   Clear
2:12 AM 66.2 °F - 57.2 °F 73% 30.06 in 10.0 mi South 6.9 mph - N/A   Clear
2:32 AM 64.4 °F - 55.4 °F 73% 30.06 in 10.0 mi South 5.8 mph - N/A   Clear
2:53 AM 64.4 °F - 55.4 °F 73% 30.06 in 10.0 mi South 4.6 mph - N/A   Clear
3:12 AM 64.4 °F - 55.4 °F 73% 30.05 in 10.0 mi South 4.6 mph - N/A   Clear
3:32 AM 64.4 °F - 55.4 °F 73% 30.05 in 10.0 mi South 3.5 mph - N/A   Clear
3:53 AM 62.6 °F - 55.4 °F 77% 30.05 in 10.0 mi South 3.5 mph - N/A   Scattered Clouds
4:12 AM 62.6 °F - 55.4 °F 77% 30.05 in 10.0 mi SSE 4.6 mph - N/A   Scattered Clouds
4:32 AM 62.6 °F - 55.4 °F 77% 30.05 in 10.0 mi Calm Calm - N/A   Scattered Clouds
4:53 AM 64.4 °F - 55.4 °F 73% 30.05 in 10.0 mi SSE 4.6 mph - N/A   Mostly Cloudy
5:12 AM 64.4 °F - 55.4 °F 73% 30.05 in 10.0 mi SSE 4.6 mph - N/A   Scattered Clouds
5:33 AM 62.6 °F - 55.4 °F 77% 30.05 in 10.0 mi SE 3.5 mph - N/A   Scattered Clouds
5:53 AM 62.6 °F - 55.4 °F 77% 30.05 in 10.0 mi SSE 3.5 mph - N/A   Scattered Clouds
6:12 AM 62.6 °F - 55.4 °F 77% 30.05 in 10.0 mi Calm Calm - N/A   Clear
6:33 AM 62.6 °F - 55.4 °F 77% 30.06 in 10.0 mi Calm Calm - N/A   Scattered Clouds
6:52 AM 64.4 °F - 57.2 °F 77% 30.06 in 10.0 mi Calm Calm - N/A   Mostly Cloudy
7:12 AM 66.2 °F - 57.2 °F 73% 30.06 in 10.0 mi Calm Calm - N/A   Mostly Cloudy
7:33 AM 68.0 °F - 57.2 °F 68% 30.06 in 10.0 mi Calm Calm - N/A   Scattered Clouds
7:52 AM 68.0 °F - 57.2 °F 68% 30.06 in 10.0 mi Calm Calm - N/A   Clear
8:12 AM 69.8 °F - 59.0 °F 68% 30.06 in 10.0 mi Calm Calm - N/A   Clear
8:33 AM 71.6 °F - 59.0 °F 64% 30.06 in 10.0 mi South 3.5 mph - N/A   Clear
8:52 AM 73.4 °F - 60.8 °F 65% 30.06 in 10.0 mi Calm Calm - N/A   Clear
9:12 AM 75.2 °F - 59.0 °F 57% 30.06 in 10.0 mi South 3.5 mph - N/A   Clear
9:33 AM 77.0 °F - 59.0 °F 54% - 10.0 mi SSW 4.6 mph - N/A   Clear
9:53 AM 78.8 °F - 57.2 °F 47% 30.05 in 10.0 mi South 5.8 mph - N/A   Clear
10:13 AM 78.8 °F - 57.2 °F 47% 30.05 in 10.0 mi South 6.9 mph - N/A   Clear
10:32 AM 80.6 °F 80.8 °F 57.2 °F 45% 30.04 in 10.0 mi SSW 5.8 mph - N/A   Clear
10:53 AM 80.6 °F 80.5 °F 55.4 °F 42% 30.03 in 10.0 mi South 6.9 mph - N/A   Clear
11:12 AM 80.6 °F 80.5 °F 55.4 °F 42% 30.03 in 10.0 mi South 6.9 mph - N/A   Clear
11:32 AM 80.6 °F 80.3 °F 53.6 °F 39% 30.03 in 10.0 mi Calm Calm - N/A   Clear
11:53 AM 80.6 °F 80.3 °F 53.6 °F 39% 30.03 in 10.0 mi West 4.6 mph - N/A   Scattered Clouds
12:12 PM 82.4 °F 81.4 °F 53.6 °F 37% 30.03 in 10.0 mi SSW 8.1 mph - N/A   Scattered Clouds
12:33 PM 82.4 °F 81.4 °F 53.6 °F 37% 30.02 in 10.0 mi SE 3.5 mph - N/A   Scattered Clouds
12:53 PM 82.4 °F - 51.8 °F 35% 30.02 in 10.0 mi SSE 6.9 mph - N/A   Scattered Clouds
1:12 PM 82.4 °F - 50.0 °F 32% 30.01 in 10.0 mi Calm Calm - N/A   Clear
1:33 PM 84.2 °F - 50.0 °F 30% 30.01 in 10.0 mi SSE 8.1 mph - N/A   Clear
1:53 PM 84.2 °F - 50.0 °F 30% 30.00 in 10.0 mi South 9.2 mph - N/A   Scattered Clouds
2:12 PM 82.4 °F - 51.8 °F 35% 30.00 in 10.0 mi South 6.9 mph - N/A   Scattered Clouds
2:33 PM 84.2 °F - 51.8 °F 33% 30.00 in 10.0 mi SSE 8.1 mph - N/A   Scattered Clouds
2:52 PM 80.6 °F - 50.0 °F 34% 30.00 in 10.0 mi SSW 9.2 mph - N/A   Scattered Clouds
3:12 PM 84.2 °F - 50.0 °F 30% 29.99 in 10.0 mi SSW 5.8 mph - N/A   Scattered Clouds
3:33 PM 82.4 °F - 50.0 °F 32% 29.99 in 10.0 mi South 12.7 mph 17.3 mph N/A   Scattered Clouds
3:52 PM 84.2 °F - 51.8 °F 33% 29.98 in 10.0 mi South 10.4 mph - N/A   Scattered Clouds
4:12 PM 84.2 °F - 51.8 °F 33% 29.98 in 10.0 mi South 6.9 mph 10.4 mph N/A   Scattered Clouds
4:33 PM 82.4 °F - 51.8 °F 35% 29.97 in 10.0 mi South 9.2 mph 17.3 mph N/A   Scattered Clouds
4:52 PM 84.2 °F - 51.8 °F 33% 29.97 in 10.0 mi South 10.4 mph - N/A   Mostly Cloudy
5:13 PM 80.6 °F - 51.8 °F 37% 29.97 in 10.0 mi South 6.9 mph - N/A   Scattered Clouds
5:33 PM 82.4 °F - 51.8 °F 35% 29.96 in 10.0 mi South 9.2 mph - N/A   Scattered Clouds
5:52 PM 82.4 °F - 51.8 °F 35% 29.96 in 10.0 mi SSW 8.1 mph - N/A   Scattered Clouds
6:13 PM 82.4 °F - 51.8 °F 35% 29.96 in 10.0 mi SSW 6.9 mph - N/A   Clear
6:33 PM 80.6 °F - 51.8 °F 37% 29.95 in 10.0 mi South 6.9 mph - N/A   Clear
6:52 PM 80.6 °F 80.3 °F 53.6 °F 39% 29.95 in 10.0 mi South 8.1 mph - N/A   Clear
7:13 PM 80.6 °F 80.3 °F 53.6 °F 39% 29.95 in 10.0 mi South 9.2 mph - N/A   Clear
7:33 PM 78.8 °F - 53.6 °F 42% 29.94 in 10.0 mi SSW 5.8 mph - N/A   Clear
7:52 PM 77.0 °F - 53.6 °F 44% 29.94 in 10.0 mi SSW 8.1 mph - N/A   Clear
8:13 PM 75.2 °F - 53.6 °F 47% 29.94 in 10.0 mi SSW 5.8 mph - N/A   Clear
8:32 PM 73.4 °F - 53.6 °F 50% 29.94 in 10.0 mi SSW 5.8 mph - N/A   Clear
8:52 PM 71.6 °F - 53.6 °F 53% 29.93 in - South 5.8 mph - N/A   Clear
9:13 PM 71.6 °F - 51.8 °F 50% 29.93 in 10.0 mi South 4.6 mph - N/A   Clear
9:32 PM 71.6 °F - 51.8 °F 50% 29.93 in 10.0 mi South 5.8 mph - N/A   Clear
9:52 PM 69.8 °F - 51.8 °F 53% 29.94 in 10.0 mi South 5.8 mph - N/A   Clear
10:13 PM 69.8 °F - 51.8 °F 53% 29.94 in 10.0 mi South 5.8 mph - N/A   Clear
10:32 PM 69.8 °F - 50.0 °F 49% 29.95 in 10.0 mi South 5.8 mph - N/A   Clear
10:53 PM 69.8 °F - 51.8 °F 53% 29.95 in 10.0 mi South 5.8 mph - N/A   Clear
11:13 PM 68.0 °F - 50.0 °F 52% 29.94 in 10.0 mi South 6.9 mph - N/A   Clear
11:32 PM 68.0 °F - 51.8 °F 56% 29.94 in 10.0 mi South 5.8 mph - N/A   Clear
11:53 PM 68.0 °F - 51.8 °F 56% 29.94 in 10.0 mi South 6.9 mph - N/A   Clear